Location: ????????
(54.6123°N, 39.2099°E)
Time: 14:05:18
(UTC+00:00)

USA 59 Rocket - Pass Details

Date: 19 May 2025
Orbit: 373 x 1695 km, 63.3° (Epoch: 19 June)

Event Time Altitude Azimuth Distance (km) Brightness Sun altitude
Exits shadow 20:24:16 33° 160° (SSE) 694 -0.2 -14.5°
Maximum altitude 20:24:51 37° 132° (SE) 633 -0.3 -14.5°
Drops below altitude 10° 20:27:37 10° 62° (ENE) 1,392 2.1 -14.6°
Sets 20:29:39 0° 54° (NE) 2,254 3.3 -14.7°
